Location: Brookview Estates
(36.0476°N, 86.6931°W)
Time: 08:50:37
(UTC+00:00)

Cosmos 2369 Rocket - Pass Details

Date: 30 March 2020
Orbit: 829 x 852 km, 71.0° (Epoch: 24 May)

Event Time Altitude Azimuth Distance (km) Brightness Sun altitude
Rises 02:38:49 0° 340° (NNW) 3,419 6.1 -29.9°
Reaches altitude 10° 02:41:18 10° 342° (NNW) 2,478 5.2 -30.3°
Enters shadow 02:45:31 50° 357° (N) 1,065 2.8 -31.1°
